Newberry Springs, CA

9:01 PM PST on February 23, 2017 (GMT -0800)
Barstow-Daggett

Weather History for KDAG - March, 2013

Change the Weather History Date:

Tuesday, March 19, 2013

  Actual Average Record
Temperature  
Mean Temperature 71 °F 59 °F  
Max Temperature 82 °F 72 °F 89 °F (1997)
Min Temperature 62 °F 46 °F 35 °F (1951)
Degree Days  
Heating Degree Days 0    
Cooling Degree Days 6    
Growing Degree Days 21 (Base 50)    
Moisture  
Dew Point 25 °F    
Average Humidity 19    
Maximum Humidity 27    
Minimum Humidity 11    
Precipitation  
Precipitation 0.00 in 0.01 in 0.34 in (1979)
Month to date precipitation 0.37  
Year to date precipitation 1.63  
Sea Level Pressure  
Sea Level Pressure 29.96 in    
Wind  
Wind Speed 17 mph (West)    
Max Wind Speed 31 mph    
Max Gust Speed 39 mph    
Visibility 10 miles    
Events      
T = Trace of Precipitation, MM = Missing Value Source: NWS Daily Summary

Daily Weather History Graph

Daily Weather History Graph

Search for Another Location

Airport or City:

Trip Planner

Search our weather history database for the weather conditions in past years. The results will help you decide how hot, cold, wet, or windy it might be!

Date:

Astronomy

Mar. 19, 2013 Rise Set
Actual Time 6:51 AM PDT 6:58 PM PDT
Civil Twilight 6:26 AM PDT 7:23 PM PDT
Nautical Twilight 5:57 AM PDT 7:52 PM PDT
Astronomical Twilight 5:27 AM PDT 8:22 PM PDT
Moon 11:58 AM PDT (3/19) 1:35 AM PDT (3/19)
Length of Visible Light 12h 57m
Length of Day
12h 06m
Waxing Crescent, 51% of the Moon is Illuminated
Mar 19
Waxing Crescent
Mar 27
Full
Apr 2
Last Quarter
Apr 10
New
Apr 18
First Quarter

Hourly Weather History & Observations

Time (PDT) Temp. Dew Point Humidity Pressure Visibility Wind Dir Wind Speed Gust Speed Precip Events Conditions
12:50 AM 64.9 °F 17.1 °F 16% 29.91 in 10.0 mi WSW 18.4 mph - N/A   Clear
1:50 AM 66.0 °F 15.1 °F 14% 29.88 in 10.0 mi WSW 23.0 mph 32.2 mph N/A   Clear
3:50 AM 64.0 °F 26.1 °F 24% 29.89 in 10.0 mi WSW 31.1 mph 39.1 mph N/A   Clear
4:50 AM 63.0 °F 26.1 °F 25% 29.89 in 10.0 mi WSW 24.2 mph 33.4 mph N/A   Clear
5:50 AM 63.0 °F 24.1 °F 23% 29.93 in 10.0 mi West 20.7 mph 28.8 mph N/A   Clear
6:50 AM 62.1 °F 25.0 °F 24% 29.94 in 10.0 mi West 21.9 mph 29.9 mph N/A   Clear
7:50 AM 62.1 °F 26.1 °F 25% 29.99 in 10.0 mi West 19.6 mph - N/A   Clear
8:50 AM 64.9 °F 27.0 °F 24% 30.00 in 10.0 mi West 21.9 mph - N/A   Clear
9:50 AM 68.0 °F 27.0 °F 21% 30.02 in 10.0 mi West 20.7 mph - N/A   Clear
10:50 AM 71.1 °F 27.0 °F 19% 30.01 in 10.0 mi West 13.8 mph - N/A   Clear
11:50 AM 73.9 °F 27.0 °F 18% 29.99 in 10.0 mi WNW 11.5 mph - N/A   Clear
12:50 PM 75.9 °F 21.9 °F 13% 29.99 in 10.0 mi NW 6.9 mph - N/A   Clear
1:50 PM 77.0 °F 21.9 °F 13% 29.96 in 10.0 mi Calm Calm - N/A   Clear
2:50 PM 79.0 °F 19.9 °F 11% 29.94 in 10.0 mi North 3.5 mph - N/A   Clear
3:50 PM 80.1 °F 19.9 °F 11% 29.93 in 10.0 mi NE 8.1 mph - N/A   Clear
4:50 PM 79.0 °F 19.9 °F 11% 29.92 in 10.0 mi Variable 4.6 mph - N/A   Clear
5:50 PM 79.0 °F 21.0 °F 12% 29.92 in 10.0 mi Variable 5.8 mph - N/A   Clear
6:50 PM 75.0 °F 21.0 °F 13% 29.92 in 10.0 mi East 4.6 mph - N/A   Clear
7:50 PM 75.0 °F 23.0 °F 14% 29.94 in 10.0 mi WSW 18.4 mph 29.9 mph N/A   Clear
8:06 PM 73.4 °F 28.4 °F 19% 30.01 in 10.0 mi West 12.7 mph 24.2 mph N/A   Clear
8:50 PM 71.1 °F 30.0 °F 22% 29.98 in 10.0 mi West 17.3 mph 27.6 mph N/A   Clear
9:50 PM 69.1 °F 32.0 °F 25% 30.00 in 10.0 mi WSW 15.0 mph - N/A   Clear
10:50 PM 68.0 °F 32.0 °F 26% 30.00 in 10.0 mi WSW 8.1 mph - N/A   Clear
11:50 PM 68.0 °F 33.1 °F 27% 30.00 in 10.0 mi West 11.5 mph - N/A   Clear